Petersburg, AK

9:31 AM AKST on December 12, 2017 (GMT -0900)
Johnson Petersburg

Weather History for PAPG - February, 2013

Change the Weather History Date:

Monday, February 4, 2013

  Actual Average Record
Temperature  
Mean Temperature 34 °F -  
Max Temperature 37 °F 34 °F 48 °F (1987)
Min Temperature 30 °F 26 °F 9 °F (1989)
Degree Days  
Heating Degree Days 32    
Moisture  
Dew Point 31 °F    
Average Humidity 90    
Maximum Humidity 93    
Minimum Humidity 81    
Precipitation  
Precipitation 0.00 in - - ()
Sea Level Pressure  
Sea Level Pressure 29.80 in    
Wind  
Wind Speed 1 mph (South)    
Max Wind Speed 6 mph    
Max Gust Speed -    
Visibility 9 miles    
Events Fog    
Averages and records for this station are not official NWS values.
T = Trace of Precipitation, MM = Missing Value Source: NWS Daily Summary

Daily Weather History Graph

Daily Weather History Graph

Search for Another Location

Airport or City:

Trip Planner

Search our weather history database for the weather conditions in past years. The results will help you decide how hot, cold, wet, or windy it might be!

Date:

Astronomy

Feb. 04, 2013 Rise Set
Actual Time 7:42 AM AKST 4:29 PM AKST
Civil Twilight 7:01 AM AKST 5:10 PM AKST
Nautical Twilight 6:15 AM AKST 5:56 PM AKST
Astronomical Twilight 5:31 AM AKST 6:40 PM AKST
Moon 2:44 AM AKST (2/4) 10:39 AM AKST (2/4)
Length of Visible Light 10h 09m
Length of Day
8h 46m
Waning Crescent, 35% of the Moon is Illuminated
Feb 4
Waning Crescent
Feb 9
New
Feb 17
First Quarter
Feb 25
Full
Mar 4
Last Quarter

Hourly Weather History & Observations

Time (AKST) Temp. Windchill Dew Point Humidity Pressure Visibility Wind Dir Wind Speed Gust Speed Precip Events Conditions
12:16 AM 35.6 °F - 33.8 °F 93% 29.90 in 10.0 mi Calm Calm - N/A   Overcast
1:56 AM 35.6 °F - 32.0 °F 87% 29.91 in 10.0 mi Calm Calm - N/A   Overcast
2:16 AM 35.6 °F - 32.0 °F 87% 29.91 in 10.0 mi Calm Calm - N/A   Overcast
2:36 AM 35.6 °F - 33.8 °F 93% 29.91 in 10.0 mi Calm Calm - N/A   Mostly Cloudy
2:56 AM 35.6 °F - 32.0 °F 87% 29.91 in 10.0 mi Calm Calm - N/A   Overcast
3:16 AM 35.6 °F - 33.8 °F 93% 29.91 in 10.0 mi Calm Calm - N/A   Overcast
3:36 AM 35.6 °F - 32.0 °F 87% 29.91 in 10.0 mi Calm Calm - N/A   Overcast
3:56 AM 35.6 °F - 33.8 °F 93% 29.91 in 10.0 mi Calm Calm - N/A   Mostly Cloudy
4:16 AM 35.6 °F - 32.0 °F 87% 29.91 in 10.0 mi Calm Calm - N/A   Overcast
4:36 AM 35.6 °F - 32.0 °F 87% 29.91 in 10.0 mi Calm Calm - N/A   Overcast
4:56 AM 35.6 °F 32.8 °F 33.8 °F 93% 29.91 in 10.0 mi East 3.5 mph - N/A   Overcast
5:16 AM 33.8 °F - 30.2 °F 87% 29.92 in 9.0 mi Calm Calm - N/A   Mostly Cloudy
5:36 AM 33.8 °F 30.8 °F 32.0 °F 93% 29.91 in 10.0 mi West 3.5 mph - N/A   Overcast
5:56 AM - - - N/A% - - North - - N/A   Unknown
6:49 AM 33.8 °F - 32.0 °F 93% 29.91 in 10.0 mi Calm Calm - N/A Fog Patches of Fog
7:49 AM 35.6 °F - 33.8 °F 93% 29.91 in 10.0 mi Calm Calm - N/A   Overcast
8:36 AM 33.8 °F - 32.0 °F 93% 29.91 in 10.0 mi Calm Calm - N/A   Overcast
8:56 AM 33.8 °F - 30.2 °F 87% 29.91 in 10.0 mi Calm Calm - N/A   Mostly Cloudy
9:16 AM 33.8 °F 30.8 °F 32.0 °F 93% 29.91 in 10.0 mi WNW 3.5 mph - N/A   Mostly Cloudy
9:36 AM 33.8 °F - 32.0 °F 93% 29.92 in 10.0 mi Calm Calm - N/A   Overcast
9:56 AM 33.8 °F - 32.0 °F 93% 29.92 in 10.0 mi Calm Calm - N/A   Overcast
10:16 AM 35.6 °F - 33.8 °F 93% 29.92 in 10.0 mi Calm Calm - N/A   Overcast
10:36 AM 35.6 °F - 33.8 °F 93% 29.92 in 10.0 mi Calm Calm - N/A   Mostly Cloudy
10:56 AM 35.6 °F - 33.8 °F 93% 29.91 in 10.0 mi Calm Calm - N/A   Mostly Cloudy
11:16 AM 37.4 °F - 33.8 °F 87% 29.90 in 10.0 mi Calm Calm - N/A   Mostly Cloudy
11:36 AM 35.6 °F - 33.8 °F 93% 29.90 in 10.0 mi Calm Calm - N/A   Mostly Cloudy
11:56 AM 37.4 °F 34.9 °F 33.8 °F 87% 29.89 in 10.0 mi West 3.5 mph - N/A   Scattered Clouds
12:16 PM 37.4 °F - 33.8 °F 87% 29.88 in 10.0 mi Calm Calm - N/A   Scattered Clouds
12:36 PM 37.4 °F 34.9 °F 32.0 °F 81% 29.87 in 10.0 mi SW 3.5 mph - N/A   Scattered Clouds
12:56 PM 37.4 °F - 33.8 °F 87% 29.85 in 10.0 mi Calm Calm - N/A   Partly Cloudy
1:16 PM 37.4 °F - 32.0 °F 81% 29.85 in 10.0 mi Calm Calm - N/A   Partly Cloudy
1:36 PM 35.6 °F - 33.8 °F 93% 29.84 in 10.0 mi Calm Calm - N/A   Partly Cloudy
1:56 PM 37.4 °F - 33.8 °F 87% 29.84 in 10.0 mi Calm Calm - N/A   Partly Cloudy
2:16 PM 37.4 °F - 33.8 °F 87% 29.83 in 10.0 mi Calm Calm - N/A   Partly Cloudy
2:36 PM 37.4 °F - 33.8 °F 87% 29.81 in 10.0 mi Calm Calm - N/A   Partly Cloudy
2:56 PM 37.4 °F - 33.8 °F 87% 29.80 in 10.0 mi Calm Calm - N/A   Scattered Clouds
3:16 PM 35.6 °F - 33.8 °F 93% 29.80 in 10.0 mi Calm Calm - N/A   Scattered Clouds
3:36 PM 35.6 °F 32.8 °F 32.0 °F 87% 29.79 in 10.0 mi South 3.5 mph - N/A   Scattered Clouds
3:56 PM 33.8 °F - 30.2 °F 87% 29.79 in 10.0 mi Calm Calm - N/A   Scattered Clouds
4:16 PM 33.8 °F 30.8 °F 30.2 °F 87% 29.77 in 10.0 mi SSE 3.5 mph - N/A   Scattered Clouds
4:36 PM 33.8 °F 30.8 °F 30.2 °F 87% 29.76 in 10.0 mi SE 3.5 mph - N/A   Scattered Clouds
4:56 PM 33.8 °F 30.8 °F 30.2 °F 87% 29.75 in 10.0 mi SSE 3.5 mph - N/A   Partly Cloudy
5:16 PM 33.8 °F 29.6 °F 30.2 °F 87% 29.75 in 10.0 mi SE 4.6 mph - N/A   Partly Cloudy
5:36 PM - - - N/A% - - North - - N/A   Unknown
5:56 PM 30.2 °F - 28.4 °F 93% 29.72 in 2.5 mi Calm Calm - N/A   Mostly Cloudy
6:16 PM 33.8 °F 28.6 °F 30.2 °F 87% 29.71 in 2.5 mi ESE 5.8 mph - N/A   Mostly Cloudy
6:36 PM 33.8 °F 29.6 °F 30.2 °F 87% 29.70 in 2.5 mi ESE 4.6 mph - N/A   Mostly Cloudy
6:56 PM 33.8 °F 29.6 °F 30.2 °F 87% 29.68 in 10.0 mi SSE 4.6 mph - N/A   Scattered Clouds
7:16 PM 32.0 °F - 28.4 °F 87% 29.67 in 10.0 mi Calm Calm - N/A   Scattered Clouds
7:36 PM 30.2 °F 26.7 °F 28.4 °F 93% 29.66 in 10.0 mi WSW 3.5 mph - N/A   Scattered Clouds
7:56 PM 30.2 °F - 28.4 °F 93% 29.65 in 4.0 mi Calm Calm - N/A   Scattered Clouds
8:16 PM 30.2 °F - 28.4 °F 93% 29.63 in 4.0 mi Calm Calm - N/A   Scattered Clouds
8:36 PM 30.2 °F 24.3 °F 28.4 °F 93% 29.62 in 4.0 mi SSE 5.8 mph - N/A   Scattered Clouds
8:56 PM 30.2 °F 25.4 °F 28.4 °F 93% 29.61 in 7.0 mi WSW 4.6 mph - N/A   Unknown
9:36 PM 30.2 °F 26.7 °F 28.4 °F 93% 29.59 in 7.0 mi South 3.5 mph - N/A   Scattered Clouds
9:56 PM 30.2 °F 25.4 °F 26.6 °F 86% 29.58 in 10.0 mi South 4.6 mph - N/A   Clear
10:16 PM 30.2 °F 26.7 °F 28.4 °F 93% 29.56 in - SSE 3.5 mph - N/A   Unknown
10:36 PM 30.2 °F 26.7 °F 26.6 °F 86% 29.56 in 10.0 mi West 3.5 mph - N/A   Mostly Cloudy
10:56 PM 30.2 °F - 28.4 °F 93% 29.56 in 10.0 mi Calm Calm - N/A   Overcast
11:16 PM 30.2 °F - 28.4 °F 93% 29.55 in 10.0 mi Calm Calm - N/A   Overcast
11:36 PM 30.2 °F - 28.4 °F 93% 29.54 in 10.0 mi Calm Calm - N/A   Overcast
11:56 PM 30.2 °F - 28.4 °F 93% 29.53 in 10.0 mi Calm Calm - N/A   Overcast